SL-16 DEB, 29098

Orbit data source: Space-Track

SL-16 DEB, 29098 is space debris in LEO originally from a launch on Fri, 26 Mar 1993 UTC launched from the Tyuratam Missile And Space Complex (TTMTR). Debris objects in space refer to the collection of defunct objects orbiting the Earth. Examples of debris include non-operational satellites, rocket bodies, and fragments generated from explosions, collisions, or faulty payload assembly.

Loading next visibility...
Identifier
29098, 1993-016AM
Orbit
LEO
Last TLE update
4 days ago
Origin
Manufacturer
Unknown
Mission
Spacecraft
Bus & Motor
Unknown
Mass
Unknown
Launch date (UTC)
1993-03-26 (32 years ago)
Launch vehicle
Unknown
Launch site
Tyuratam Missile And Space Complex (TTMTR)
Object type
Payload
Rocket body
Debris
Shape & HBR
Unknown
Radar Cross Section
Small (<0.1 m²)

Expand to show TLE details & history

TLE from 4 days ago
0 SL-16 DEB
1 29098U 93016AM  25124.87472429  .00001936  00000-0  96104-3 0  9996
2 29098  70.9271 310.0704 0081935  96.1653 330.2265 14.16644444612948
Epoch: 2025-05-04T20:59Z
Definitive object data (Epoch: 2025-05-04T20:59:36.178Z)
Latitude
59.75042°
Longitude
168.31072°
Altitude
795.13 km
Speed
7.488 km/s
True Right ascension
23h 04m 49s
True Declination
59° 36' 05"
Sunlit
Object was in daylight at TLE epoch
Visualization TLE readout
Latitude
68.52478°
Longitude
-118.03816°
Altitude
789.874 km
Speed
7.495 km/s
Apparent Right ascension
02h 55m 49s
Apparent Declination
19° 15' 32"
Sunlit
Object is in daylight
Visualization observer readout
Local Sidereal Time
14:21:58
Azimuth
350.74° N
Elevation
-30.3°
Doppler factor
1
Orbital elements
Apogee altitude
893.752 km
Perigee altitude
775.556 km
Semi-major axis
7,212.791 km
Eccentricity
0.0081935
Inclination
70.9271°
RAAN
310.0704°
Arg. of periapsis
96.1653°
True anomaly
329.75609°
Mean anomaly
330.2265°
Eccentric anomaly
329.99171°
Mean motion
3.54314 °/min
BSTAR
0.00096104
Orbital period
101.6 mins
Loading maneuver chart data...
Loading SW <> Apogee altitude chart data...
Loading historical data...
Loading historical data...
Loading historical data...
Loading historical data...
Loading historical data...
Loading historical data...
Loading historical data...

SL-16 DEB Visibility forecast

Observer location: undefined°, undefined°

Span
Click to sort rows by Start time (UTC) header in descending order
Start Az.
Max El. time (UTC)
Max El. Az.
Max El.
End time (UTC)
End Az.
9 mins2025-05-09 12:39:10.235Z190.206° SSW2025-05-09 12:43:10.235Z139.959° SSE42.162°2025-05-09 12:48:10.235Z29.566° NE
5 mins2025-05-09 14:26:10.235Z284.043° WNW2025-05-09 14:28:10.235Z310.46° NW16.464°2025-05-09 14:31:10.235Z346.495° N
7 mins2025-05-09 21:34:10.235Z12.29° NNE2025-05-09 21:37:10.235Z60.254° ENE24.99°2025-05-09 21:41:10.235Z112.826° SE
8 mins2025-05-09 23:17:10.235Z314.9° NW2025-05-09 23:21:10.235Z249.314° W31.524°2025-05-09 23:25:10.235Z191.628° SSW
|